{"data":{"norad_id":53843,"epoch":"2026-05-25T03:39:37.696032Z","epoch_age_seconds":58904,"freshness":"FRESH","line1":"1 53843U 22114AB  26145.15251963 -.00000318  00000+0 -19112-5 0  9995","line2":"2 53843  53.2116 310.9528 0001233  93.9932 266.1201 15.08838799204513","mean_motion":15.08838799,"eccentricity":0.0001233,"inclination_deg":53.2116,"raan_deg":310.9528,"arg_perigee_deg":93.9932,"mean_anomaly_deg":266.1201,"bstar":-1.9112e-6,"rev_number":20451,"period_min":95.437630643802,"perigee_km":538.89408483848,"apogee_km":540.60003504766,"semimajor_km":6917.8840599431,"source":"CELESTRAK","updated_at":"2026-05-25T13:38:17.574512Z"}}